This is the latest recevied weather packets stored in our database for station/object SV1JSO-13. If no packets are shown the sender has not sent any weather packets the latest 10 day(s).
| Time | Temp. | Humidity | Pressure | Rain* | Wind** | Luminosity | Snow |
|---|---|---|---|---|---|---|---|
| 1788456601 | 30.56° C | 30% | 1006.2 hPa | 0 mm | - | 0 W/m² | - |
| 1788456300 | 30.56° C | 30% | 1006.1 hPa | 0 mm | - | 0 W/m² | - |
| 1788456000 | 30.56° C | 31% | 1006.2 hPa | 0 mm | - | 0 W/m² | - |
| 1788455700 | 30.56° C | 31% | 1006.1 hPa | 0 mm | - | 0 W/m² | - |
| 1788455400 | 30.56° C | 31% | 1006 hPa | 0 mm | - | 0 W/m² | - |
| 1788455100 | 30.56° C | 32% | 1006.1 hPa | 0 mm | - | 0 W/m² | - |
| 1788454800 | 30.56° C | 33% | 1005.9 hPa | 0 mm | - | 1 W/m² | - |
| 1788454500 | 30.56° C | 33% | 1005.9 hPa | 0 mm | - | 2 W/m² | - |
| 1788454200 | 30.56° C | 32% | 1006 hPa | 0 mm | - | 3 W/m² | - |
| 1788453900 | 30.56° C | 31% | 1005.9 hPa | 0 mm | - | 5 W/m² | - |
| 1788453600 | 30.56° C | 30% | 1005.8 hPa | 0 mm | - | 7 W/m² | - |
| 1788453300 | 30.56° C | 30% | 1005.7 hPa | 0 mm | - | 9 W/m² | - |
| 1788453000 | 31.11° C | 30% | 1005.9 hPa | 0 mm | - | 12 W/m² | - |
| 1788452700 | 31.11° C | 31% | 1005.7 hPa | 0 mm | - | 15 W/m² | - |
| 1788452400 | 31.11° C | 31% | 1005.6 hPa | 0 mm | - | 19 W/m² | - |
| 1788452100 | 31.11° C | 31% | 1005.7 hPa | 0 mm | - | 28 W/m² | - |
| 1788451803 | 31.11° C | 32% | 1005.6 hPa | 0 mm | - | 45 W/m² | - |
| 1788451500 | 31.11° C | 32% | 1005.5 hPa | 0 mm | - | 65 W/m² | - |
| 1788451200 | 31.11° C | 32% | 1005.6 hPa | 0 mm | - | 81 W/m² | - |
| 1788450900 | 31.11° C | 32% | 1005.6 hPa | 0 mm | - | 100 W/m² | - |
| 1788450601 | 31.11° C | 32% | 1005.5 hPa | 0 mm | - | 116 W/m² | - |
| 1788450300 | 31.11° C | 32% | 1005.3 hPa | 0 mm | - | 136 W/m² | - |
| 1788450000 | 31.11° C | 32% | 1005.2 hPa | 0 mm | - | 147 W/m² | - |
| 1788449700 | 31.11° C | 33% | 1005.3 hPa | 0 mm | - | 132 W/m² | - |
| 1788449400 | 31.11° C | 32% | 1005.4 hPa | 0 mm | - | 94 W/m² | - |
* Rain latest hour (hover to see other rain measurements)
** Current wind speed in m/s (hover to see current wind gust speed)